Back to catalog

STARLINK-4458

AliveCommunicationsSSO
NORAD 53668·PAYLOAD·🇺🇸 United States

Launched Aug 31, 2022 from Vandenberg Space Force Base

Loading…

Next Passes (next 24 hours)

TLE

FreshSource: CelesTrak SupGP

Epoch: Sep 15, 2026, 01:52 UTC

1 53668C 22105W   26258.07826389  .00758710  00000+0  18537-1 0  2584
2 53668  97.5003 146.3712 0001516 110.4584 153.7571 15.40490527    11

Track STARLINK-4458 in real time with AllMySat

Download on the App Store